User: anonymous   Login
Location: Cosy Dell
(34.2789°N, 117.4537°W)
Time: 12:33:55
(UTC+00:00)
Language:

Okean 3 - Orbit

View from above orbital plane
View from above orbital plane
View from above satellite
View from above satellite

Ground track
Ground track

The orbit data is extracted from the following two-line orbital elements,

1 21397U 91039A   20263.07948999  .00000181  00000-0  14898-4 0  9996
2 21397  82.5189  87.7010 0016940 212.3092 147.7092 14.92957245587298
Epoch (UTC): 19 September 2020 01:54:27
Eccentricity: 0.0016940
inclination: 82.5189°
perigee height: 577 km
apogee height: 600 km
right ascension of ascending node: 87.7010°
argument of perigee: 212.3092°
revolutions per day: 14.92957245
mean anomaly at epoch: 147.7092°
orbit number at epoch: 58729

The dashed part of the orbit path shows where the satellite is in the earth's shadow,  

DLR